Rothschild, WI

12:17 PM CDT on August 25, 2016 (GMT -0500)
Wausau Downtown

Weather History for KAUW - February, 2013

Change the Weather History Date:

Saturday, February 9, 2013

  Actual Average Record
Temperature  
Mean Temperature 12 °F 17 °F  
Max Temperature 24 °F 26 °F 46 °F (1938)
Min Temperature -1 °F 8 °F -37 °F (1951)
Degree Days  
Heating Degree Days 53 48  
Month to date heating degree days 495 437  
Since 1 July heating degree days 4991 5287  
Cooling Degree Days 0 0  
Month to date cooling degree days 0 0  
Year to date cooling degree days 0 0  
Moisture  
Dew Point 11 °F    
Average Humidity 88    
Maximum Humidity 95    
Minimum Humidity 80    
Precipitation  
Precipitation T in 0.03 in 0.35 in (2001)
Month to date precipitation 0.23 0.27  
Year to date precipitation 1.91 1.29  
Snow  
Snow T in 0.40 in 5.00 in (1909)
Month to date snowfall 3.7 3.3  
Since 1 July snowfall 44.2 39.0  
Snow Depth 11.00 in    
Sea Level Pressure  
Sea Level Pressure 30.22 in    
Wind  
Wind Speed 8 mph (SSE)    
Max Wind Speed 15 mph    
Max Gust Speed 21 mph    
Visibility 6 miles    
Events Fog , Snow    
T = Trace of Precipitation, MM = Missing Value Source: NWS Daily Summary

Daily Weather History Graph

Daily Weather History Graph

Search for Another Location

Airport or City:

Trip Planner

Search our weather history database for the weather conditions in past years. The results will help you decide how hot, cold, wet, or windy it might be!

Date:

Astronomy

Feb. 09, 2013 Rise Set
Actual Time 7:07 AM CST 5:18 PM CST
Civil Twilight 6:37 AM CST 5:49 PM CST
Nautical Twilight 6:02 AM CST 6:23 PM CST
Astronomical Twilight 5:28 AM CST 6:57 PM CST
Moon 6:18 AM CST (2/9) 5:02 PM CST (2/9)
Length of Visible Light 11h 12m
Length of Day
10h 10m
Waning Crescent, 0% of the Moon is Illuminated
Feb 9
Waning Crescent
Feb 10
New
Feb 17
First Quarter
Feb 25
Full
Mar 4
Last Quarter

Hourly Weather History & Observations

Time (CST) Temp. Windchill Dew Point Humidity Pressure Visibility Wind Dir Wind Speed Gust Speed Precip Events Conditions
12:54 AM 5.0 °F -2.1 °F 1.9 °F 87% 30.39 in 10.0 mi ESE 3.5 mph - N/A   Clear
1:54 AM 5.0 °F -4.1 °F 1.9 °F 87% 30.39 in 10.0 mi ESE 4.6 mph - N/A   Clear
2:54 AM 3.0 °F -6.4 °F -0.0 °F 87% 30.38 in 7.0 mi ESE 4.6 mph - N/A   Clear
3:54 AM 5.0 °F -5.6 °F 1.9 °F 87% 30.36 in 10.0 mi East 5.8 mph - N/A   Clear
4:54 AM 7.0 °F - 5.0 °F 92% 30.35 in 10.0 mi Calm Calm - N/A   Clear
5:54 AM 1.9 °F -10.6 °F -0.9 °F 88% 30.34 in 10.0 mi ESE 6.9 mph - N/A   Mostly Cloudy
6:54 AM 5.0 °F -6.9 °F 1.9 °F 87% 30.33 in 10.0 mi ESE 6.9 mph - N/A   Mostly Cloudy
7:03 AM 6.8 °F -4.8 °F 1.4 °F 79% 30.23 in 9.0 mi ESE 6.9 mph - N/A   Mostly Cloudy
7:24 AM 6.8 °F -4.8 °F 3.2 °F 85% 30.23 in 8.0 mi SE 6.9 mph - N/A   Mostly Cloudy
7:54 AM 8.1 °F -4.3 °F 5.0 °F 87% 30.32 in 5.0 mi SSE 8.1 mph - N/A   Overcast
8:18 AM 10.4 °F -3.3 °F 6.8 °F 85% 30.22 in 1.8 mi SSE 10.4 mph - 0.00 in Snow Light Snow
8:31 AM 10.4 °F -3.3 °F 6.8 °F 85% 30.22 in 0.8 mi South 10.4 mph - 0.00 in Snow Light Snow
8:54 AM 9.0 °F -3.2 °F 7.0 °F 92% 30.31 in 0.5 mi SSE 8.1 mph - 0.00 in Fog , Snow Light Snow
9:30 AM 10.4 °F -1.5 °F 6.8 °F 85% 30.21 in 1.0 mi SSE 8.1 mph - 0.00 in Snow Light Snow
9:54 AM 10.0 °F -0.9 °F 7.0 °F 87% 30.30 in 2.5 mi SSE 6.9 mph - 0.00 in Snow Light Snow
10:03 AM 10.4 °F -1.5 °F 8.6 °F 92% 30.20 in 4.0 mi SSE 8.1 mph - 0.00 in   Overcast
10:24 AM 10.4 °F -3.3 °F 8.6 °F 92% 30.20 in 5.0 mi South 10.4 mph - 0.00 in   Overcast
10:54 AM 12.0 °F -1.3 °F 9.0 °F 88% 30.29 in 4.0 mi SSE 10.4 mph - 0.00 in   Overcast
11:25 AM 12.2 °F 0.7 °F 10.4 °F 92% 30.18 in 2.5 mi SSE 8.1 mph - 0.00 in Snow Light Snow
11:39 AM 14.0 °F 1.2 °F 10.4 °F 86% 30.17 in 3.0 mi South 10.4 mph - 0.00 in   Overcast
11:54 AM 15.1 °F 3.3 °F 10.9 °F 84% 30.26 in 3.0 mi South 9.2 mph - 0.00 in   Overcast
12:54 PM 17.1 °F 3.6 °F 12.9 °F 84% 30.24 in 7.0 mi South 12.7 mph - N/A   Overcast
1:36 PM 17.6 °F 7.3 °F 14.0 °F 86% 30.14 in 7.0 mi South 8.1 mph - N/A   Overcast
1:54 PM 19.0 °F 8.2 °F 15.1 °F 85% 30.22 in 8.0 mi South 9.2 mph - N/A   Overcast
2:54 PM 19.9 °F 8.6 °F 16.0 °F 85% 30.20 in 7.0 mi SSE 10.4 mph - N/A   Overcast
3:54 PM 21.0 °F 9.9 °F 18.0 °F 88% 30.18 in 6.0 mi SSE 10.4 mph - N/A   Overcast
4:41 PM 21.2 °F 11.7 °F 17.6 °F 86% 30.07 in 6.0 mi SSE 8.1 mph - N/A   Overcast
4:54 PM 21.9 °F 11.0 °F 18.0 °F 85% 30.16 in 6.0 mi SSE 10.4 mph - N/A   Overcast
5:54 PM 23.0 °F 13.9 °F 18.0 °F 81% 30.15 in 8.0 mi SE 8.1 mph - N/A   Overcast
6:54 PM 23.0 °F 13.9 °F 19.0 °F 85% 30.14 in 8.0 mi SE 8.1 mph - N/A   Overcast
7:54 PM 24.1 °F 15.2 °F 19.9 °F 84% 30.12 in 7.0 mi SE 8.1 mph - N/A   Overcast
8:39 PM 24.8 °F 16.9 °F 19.4 °F 80% 30.03 in 6.0 mi SSE 6.9 mph - N/A   Overcast
8:54 PM 24.1 °F 15.2 °F 21.0 °F 88% 30.12 in 6.0 mi SSE 8.1 mph - N/A   Overcast
9:54 PM 24.1 °F 14.4 °F 21.0 °F 88% 30.12 in 7.0 mi South 9.2 mph - N/A   Overcast
10:54 PM 24.1 °F 13.7 °F 21.0 °F 88% 30.10 in 8.0 mi SSE 10.4 mph - N/A   Overcast
11:54 PM 24.1 °F 12.5 °F 21.0 °F 88% 30.08 in 8.0 mi SSE 12.7 mph - N/A   Overcast